When you browse on this site, cookies collect data to enhance your experience and personalize the content and advertising you see.
Visit our Privacy Policy to learn more. By continuing to use the site, you agree to this use of cookies and data.
  • In Portugal
  • List of Countries
  • For 7 days
  • Water Temperature
  • Satellite Maps
  • Weather Map
  • Weather Widgets
  • user-avatar
    Login

    Hourly Weather Santa Cruz

    Today, 22 January, Tuesday

    Time Temperature Precipitation Wind Pressure Humidity
    00:00 +26°C° 0 mm 2 mps 724 mmHg 73%
    01:00 +26°C° 0 mm 2 mps 724 mmHg 74%
    02:00 +26°C° 0 mm 3 mps 724 mmHg 76%
    03:00 +26°C° 0 mm 2 mps 724 mmHg 77%
    04:00 +26°C° 0 mm 2 mps 724 mmHg 79%
    05:00 +25°C° 0 mm 2 mps 723 mmHg 80%
    06:00 +26°C° 0 mm 3 mps 724 mmHg 76%
    07:00 +28°C° 0 mm 3 mps 724 mmHg 71%
    08:00 +29°C° 0 mm 4 mps 725 mmHg 66%
    09:00 +30°C° 0 mm 4 mps 725 mmHg 60%
    10:00 +33°C° 0 mm 4 mps 724 mmHg 53%
    11:00 +35°C° 0 mm 5 mps 724 mmHg 47%
    12:00 +36°C° 0 mm 5 mps 724 mmHg 45%
    13:00 +36°C° 0 mm 5 mps 723 mmHg 43%
    14:00 +37°C° 0 mm 5 mps 722 mmHg 41%
    15:00 +37°C° 0 mm 5 mps 722 mmHg 42%
    16:00 +37°C° 0 mm 5 mps 721 mmHg 43%
    17:00 +36°C° 0 mm 5 mps 720 mmHg 45%
    18:00 +35°C° 0 mm 4 mps 721 mmHg 50%
    19:00 +33°C° 0 mm 3 mps 721 mmHg 55%
    20:00 +30°C° 0 mm 3 mps 722 mmHg 60%
    21:00 +30°C° 0 mm 3 mps 722 mmHg 62%
    22:00 +29°C° 0 mm 3 mps 723 mmHg 64%
    23:00 +29°C° 0 mm 3 mps 723 mmHg 65%

    Tomorrow, 23 January, Wednesday

    Time Temperature Precipitation Wind Pressure Humidity
    00:00 +29°C° 0 mm 3 mps 723 mmHg 67%
    01:00 +28°C° 0 mm 3 mps 723 mmHg 69%
    02:00 +28°C° 0 mm 4 mps 722 mmHg 70%
    03:00 +28°C° 0 mm 3 mps 722 mmHg 73%
    04:00 +27°C° 0 mm 3 mps 722 mmHg 75%
    05:00 +27°C° 0 mm 3 mps 722 mmHg 77%
    06:00 +28°C° 0 mm 3 mps 723 mmHg 73%
    07:00 +28°C° 0 mm 4 mps 724 mmHg 68%
    08:00 +29°C° 0 mm 4 mps 724 mmHg 64%
    09:00 +32°C° 0 mm 4 mps 724 mmHg 57%
    10:00 +34°C° 0 mm 4 mps 725 mmHg 50%
    11:00 +36°C° 0 mm 5 mps 725 mmHg 44%
    12:00 +36°C° 0 mm 5 mps 724 mmHg 42%
    13:00 +37°C° 0 mm 5 mps 723 mmHg 40%
    14:00 +39°C° 0 mm 5 mps 722 mmHg 38%
    15:00 +37°C° 0 mm 4 mps 721 mmHg 40%
    16:00 +37°C° 0 mm 4 mps 720 mmHg 42%
    17:00 +37°C° 0 mm 4 mps 720 mmHg 43%
    18:00 +35°C° 0 mm 3 mps 720 mmHg 49%
    19:00 +32°C° 0 mm 2 mps 721 mmHg 54%
    20:00 +31°C° 0 mm 2 mps 721 mmHg 60%
    21:00 +30°C° 0 mm 2 mps 722 mmHg 62%
    22:00 +29°C° 0 mm 2 mps 722 mmHg 65%
    23:00 +28°C° 0 mm 2 mps 723 mmHg 68%

    Day after tomorrow, 24 January, Thursday

    Time Temperature Precipitation Wind Pressure Humidity
    00:00 +28°C° 0 mm 2 mps 723 mmHg 69%
    01:00 +28°C° 0 mm 2 mps 722 mmHg 70%
    02:00 +28°C° 0 mm 2 mps 722 mmHg 71%
    03:00 +27°C° 0 mm 2 mps 722 mmHg 73%
    04:00 +27°C° 0 mm 2 mps 722 mmHg 76%
    05:00 +26°C° 0 mm 2 mps 722 mmHg 78%
    06:00 +28°C° 0 mm 2 mps 722 mmHg 73%
    07:00 +29°C° 0 mm 2 mps 723 mmHg 67%
    08:00 +31°C° 0 mm 3 mps 724 mmHg 62%
    09:00 +34°C° 0 mm 3 mps 724 mmHg 54%
    10:00 +36°C° 0 mm 3 mps 724 mmHg 46%
    11:00 +38°C° 0 mm 4 mps 724 mmHg 37%
    12:00 +40°C° 0 mm 4 mps 723 mmHg 35%
    13:00 +41°C° 0 mm 4 mps 722 mmHg 33%
    14:00 +41°C° 0 mm 4 mps 721 mmHg 31%
    15:00 +41°C° 0 mm 4 mps 720 mmHg 32%
    16:00 +41°C° 0 mm 4 mps 720 mmHg 33%
    17:00 +40°C° 0 mm 4 mps 719 mmHg 35%
    18:00 +37°C° 0 mm 3 mps 720 mmHg 41%
    19:00 +35°C° 0 mm 2 mps 720 mmHg 47%
    20:00 +32°C° 0 mm 1 mps 720 mmHg 53%
    21:00 +31°C° 0 mm 1 mps 721 mmHg 55%
    22:00 +30°C° 0 mm 1 mps 721 mmHg 57%
    23:00 +29°C° 0 mm 1 mps 722 mmHg 59%

    25 January, Friday

    Time Temperature Precipitation Wind Pressure Humidity
    00:00 +29°C° 0 mm 2 mps 721 mmHg 61%
    01:00 +28°C° 0 mm 2 mps 721 mmHg 62%
    02:00 +28°C° 0 mm 2 mps 721 mmHg 63%
    03:00 +28°C° 0 mm 2 mps 721 mmHg 64%
    04:00 +28°C° 0 mm 2 mps 721 mmHg 64%
    05:00 +27°C° 0 mm 2 mps 721 mmHg 65%
    06:00 +29°C° 0 mm 2 mps 721 mmHg 62%
    07:00 +30°C° 0 mm 3 mps 721 mmHg 59%
    08:00 +31°C° 0 mm 3 mps 722 mmHg 56%
    09:00 +34°C° 0 mm 3 mps 722 mmHg 49%
    10:00 +37°C° 0 mm 4 mps 722 mmHg 43%
    11:00 +40°C° 0 mm 5 mps 722 mmHg 36%
    12:00 +40°C° 0 mm 5 mps 721 mmHg 35%
    13:00 +41°C° 0 mm 5 mps 720 mmHg 34%
    14:00 +41°C° 0 mm 5 mps 719 mmHg 33%
    15:00 +41°C° 0 mm 4 mps 718 mmHg 34%
    16:00 +41°C° 0 mm 4 mps 718 mmHg 35%
    17:00 +40°C° 0 mm 4 mps 717 mmHg 36%
    18:00 +37°C° 0 mm 3 mps 718 mmHg 42%
    19:00 +35°C° 0 mm 3 mps 718 mmHg 48%
    20:00 +32°C° 0 mm 2 mps 719 mmHg 54%
    21:00 +32°C° 0 mm 2 mps 720 mmHg 56%
    22:00 +31°C° 0 mm 2 mps 720 mmHg 58%
    23:00 +30°C° 0 mm 2 mps 721 mmHg 60%

    26 January, Saturday

    Time Temperature Precipitation Wind Pressure Humidity
    00:00 +30°C° 0.1 mm 2 mps 721 mmHg 65%
    01:00 +29°C° 0.1 mm 3 mps 720 mmHg 70%
    02:00 +28°C° 0.1 mm 3 mps 720 mmHg 75%
    03:00 +28°C° 0.1 mm 3 mps 720 mmHg 77%
    04:00 +27°C° 0.1 mm 3 mps 720 mmHg 80%
    05:00 +27°C° 0.1 mm 3 mps 720 mmHg 83%
    06:00 +28°C° 0 mm 3 mps 721 mmHg 78%
    07:00 +29°C° 0 mm 4 mps 721 mmHg 74%
    08:00 +30°C° 0 mm 4 mps 722 mmHg 70%
    09:00 +33°C° 0 mm 4 mps 722 mmHg 62%
    10:00 +35°C° 0 mm 4 mps 722 mmHg 55%
    11:00 +37°C° 0 mm 4 mps 722 mmHg 48%
    12:00 +37°C° 0 mm 4 mps 721 mmHg 45%
    13:00 +38°C° 0 mm 4 mps 720 mmHg 42%
    14:00 +40°C° 0 mm 4 mps 719 mmHg 40%
    15:00 +40°C° 0 mm 4 mps 719 mmHg 41%
    16:00 +38°C° 0 mm 4 mps 718 mmHg 42%
    17:00 +38°C° 0 mm 4 mps 718 mmHg 43%
    18:00 +36°C° 0 mm 3 mps 718 mmHg 48%
    19:00 +34°C° 0 mm 2 mps 718 mmHg 54%
    20:00 +31°C° 0 mm 2 mps 719 mmHg 60%
    21:00 +31°C° 0 mm 2 mps 719 mmHg 62%
    22:00 +30°C° 0 mm 2 mps 720 mmHg 63%
    23:00 +30°C° 0 mm 2 mps 721 mmHg 65%

    27 January, Sunday

    Time Temperature Precipitation Wind Pressure Humidity
    00:00 +29°C° 0.1 mm 2 mps 720 mmHg 68%
    01:00 +29°C° 0.1 mm 3 mps 720 mmHg 72%
    02:00 +28°C° 0.1 mm 3 mps 720 mmHg 75%
    03:00 +28°C° 0.1 mm 3 mps 720 mmHg 78%
    04:00 +27°C° 0.1 mm 3 mps 720 mmHg 81%
    05:00 +27°C° 0.1 mm 3 mps 720 mmHg 83%
    06:00 +28°C° 0.2 mm 3 mps 721 mmHg 80%
    07:00 +29°C° 0.2 mm 3 mps 722 mmHg 77%
    08:00 +29°C° 0.2 mm 4 mps 722 mmHg 74%
    09:00 +32°C° 0 mm 4 mps 722 mmHg 65%
    10:00 +35°C° 0 mm 4 mps 722 mmHg 55%
    11:00 +37°C° 0 mm 4 mps 722 mmHg 45%
    12:00 +37°C° 0 mm 4 mps 721 mmHg 43%
    13:00 +38°C° 0 mm 4 mps 720 mmHg 40%
    14:00 +40°C° 0 mm 4 mps 719 mmHg 38%
    15:00 +38°C° 0 mm 4 mps 719 mmHg 39%
    16:00 +38°C° 0 mm 4 mps 718 mmHg 40%
    17:00 +38°C° 0 mm 4 mps 718 mmHg 41%
    18:00 +36°C° 0 mm 3 mps 718 mmHg 47%
    19:00 +34°C° 0 mm 2 mps 718 mmHg 53%
    20:00 +31°C° 0 mm 2 mps 719 mmHg 59%
    21:00 +30°C° 0 mm 2 mps 719 mmHg 62%
    22:00 +29°C° 0 mm 2 mps 720 mmHg 65%
    23:00 +29°C° 0 mm 2 mps 721 mmHg 67%
    Show more